Location: Frydek-Mistek
(49.6830°N, 18.3330°E)
Time: 20:31:06
(UTC+02:00)

Courier 1B Rocket - All Passes

Search period start: 20 April 2014 00:00
Search period end: 30 April 2014 00:00
Orbit: 921 x 1202 km, 28.2° (Epoch: 19 April)

Date Brightness Start Highest point End Pass type
(mag) Time Alt. Az. Time Alt. Az. Time Alt. Az.
23 Apr - 08:30:30 10° S 08:31:11 10° S 08:31:51 10° S daylight
24 Apr - 07:30:06 10° S 07:30:41 10° S 07:31:15 10° S daylight
25 Apr - 08:21:01 10° SSW 08:22:08 10° S 08:23:15 10° S daylight
26 Apr - 07:19:43 10° SSW 07:21:37 11° S 07:23:29 10° SSE daylight
27 Apr - 06:19:06 10° SSW 06:21:04 11° S 06:23:01 10° SSE daylight
28 Apr - 05:19:10 10° S 05:20:30 11° S 05:21:49 10° SSE daylight
28 Apr - 07:10:25 10° SSW 07:12:32 11° S 07:14:37 10° SSE daylight
29 Apr - 06:09:18 10° SSW 06:11:58 12° S 06:14:36 10° SSE daylight
